ブレッシ彗星

404P/Bressi (2012)

English version
Home page
Updated on December 11, 2020

---------------------------------------------------------------------

・ プロフィール

符号 404P/2011 U2
発見日 2011年10月24日
発見光度 19.4等
発見者 Terry H. Bressi (Kitt Peak)

・ 写真集

・ 軌道要素

Epoch 2012 Apr. 23.0 TT = JDT 2456040.5                                         
T 2012 May 7.86157 TT                                   Rudenko                 
q   4.8373379            (2000.0)            P               Q                  
n   0.07766282     Peri.  157.76777     +0.42580828     -0.88926700             
a   5.4407729      Node   266.69286     +0.80293927     +0.45646036             
e   0.1109098      Incl.    9.63007     +0.41710411     +0.02912294             
P  12.7                                                                         
From 219 observations 2011 Oct. 24-2020 Aug. 16, mean residual 0".4.            

・ 光度変化

        m1 = -8.0 + 5 logΔ + 35 log r

---------------------------------------------------------------------

軌道要素はM.P.E.C. 2020-U182に掲載されたものです。
光度グラフはComet for Windowsで作成したものです。

---------------------------------------------------------------------

Copyright(C) Seiichi Yoshida (comet@aerith.net). All rights reserved.